Location: Kumla
(59.1265°N, 15.1401°E)
Time: 18:58:41
(UTC+01:00)

Vanguard 1 Rocket - Pass Details

Date: 04 December 2023
Orbit: 654 x 4218 km, 34.3° (Epoch: 21 February)

Event Time Altitude Azimuth Distance (km) Brightness Sun altitude
Rises 04:37:22 0° 210° (SSW) 8,063 11.9 -28.1°
Reaches altitude 10° 04:46:07 10° 196° (SSW) 6,471 11.5 -27.0°
Maximum altitude 04:56:29 17° 163° (SSE) 4,901 11.2 -25.7°
Drops below altitude 10° 05:04:11 10° 128° (SE) 4,629 11.7 -24.7°
Sets 05:08:43 0° 110° (ESE) 5,049 12.4 -24.1°
